Time,TemperatureF,DewpointF,PressureIn,WindDirection,WindDirectionDegrees,WindSpeedMPH,WindSpeedGustMPH,Humidity,HourlyPrecipIn,Conditions,Clouds,dailyrainin,SoftwareType,DateUTC
2013-09-30 00:12:00,57.0,34.0,29.42,South,186,13.0,26.0,41,0.00,,,0.01,,2013-09-30 06:12:00,
2013-09-30 00:21:00,57.0,34.0,29.42,SE,145,12.0,27.0,41,0.00,,,0.01,,2013-09-30 06:21:00,
2013-09-30 00:42:00,57.0,34.0,29.40,NNE,31,9.0,57.0,41,0.00,,,0.01,,2013-09-30 06:42:00,
2013-09-30 00:52:00,57.0,34.0,29.41,SSE,163,26.0,59.0,42,0.00,,,0.01,,2013-09-30 06:52:00,
2013-09-30 01:12:00,56.0,34.0,29.37,NNW,329,23.0,65.0,44,0.00,,,0.01,,2013-09-30 07:12:00,
2013-09-30 01:21:00,56.0,34.0,29.36,SSW,205,22.0,49.0,44,0.00,,,0.01,,2013-09-30 07:21:00,
2013-09-30 01:42:00,56.0,35.0,29.36,South,180,14.0,40.0,45,0.00,,,0.01,,2013-09-30 07:42:00,
2013-09-30 01:53:00,57.0,36.0,29.36,NW,325,9.0,44.0,45,0.00,,,0.01,,2013-09-30 07:53:00,
2013-09-30 02:12:00,58.0,36.0,29.34,WSW,238,23.0,63.0,43,0.00,,,0.01,,2013-09-30 08:12:00,
2013-09-30 02:22:00,58.0,36.0,29.33,SW,216,22.0,58.0,43,0.00,,,0.01,,2013-09-30 08:22:00,
2013-09-30 02:42:00,58.0,36.0,29.34,WSW,248,29.0,56.0,43,0.00,,,0.01,,2013-09-30 08:42:00,
2013-09-30 02:52:00,58.0,37.0,29.35,SSW,211,26.0,49.0,45,0.00,,,0.01,,2013-09-30 08:52:00,
2013-09-30 03:11:00,56.0,38.0,29.37,WSW,239,27.0,48.0,51,0.00,,,0.01,,2013-09-30 09:11:00,
2013-09-30 03:22:00,56.0,38.0,29.38,WSW,238,23.0,42.0,50,0.00,,,0.01,,2013-09-30 09:22:00,
2013-09-30 03:53:00,57.0,38.0,29.37,WSW,256,22.0,50.0,48,0.00,,,0.01,,2013-09-30 09:53:00,
2013-09-30 04:13:00,57.0,38.0,29.37,West,278,17.0,46.0,48,0.00,,,0.01,,2013-09-30 10:13:00,
2013-09-30 04:22:00,57.0,38.0,29.36,SSE,165,18.0,48.0,48,0.00,,,0.01,,2013-09-30 10:22:00,
2013-09-30 04:53:00,56.0,40.0,29.39,WSW,240,20.0,33.0,54,0.00,,,0.01,,2013-09-30 10:53:00,
2013-09-30 05:12:00,55.0,39.0,29.39,WSW,248,15.0,33.0,55,0.00,,,0.01,,2013-09-30 11:12:00,
2013-09-30 05:22:00,55.0,39.0,29.38,WSW,250,17.0,33.0,54,0.00,,,0.01,,2013-09-30 11:22:00,
2013-09-30 05:52:00,55.0,39.0,29.37,SSW,211,9.0,29.0,54,0.00,,,0.01,,2013-09-30 11:52:00,
2013-09-30 06:12:00,55.0,39.0,29.38,SW,220,13.0,22.0,55,0.00,,,0.01,,2013-09-30 12:12:00,
2013-09-30 06:22:00,55.0,39.0,29.38,SW,218,8.0,29.0,54,0.00,,,0.01,,2013-09-30 12:22:00,
2013-09-30 06:42:00,54.0,39.0,29.38,WSW,245,8.0,18.0,57,0.00,,,0.01,,2013-09-30 12:42:00,
2013-09-30 06:52:00,54.0,38.0,29.36,WSW,247,14.0,30.0,55,0.00,,,0.01,,2013-09-30 12:52:00,
2013-09-30 07:11:00,55.0,37.0,29.35,SW,225,21.0,43.0,51,0.00,,,0.01,,2013-09-30 13:11:00,
2013-09-30 07:22:00,55.0,38.0,29.36,WSW,251,16.0,39.0,52,0.00,,,0.01,,2013-09-30 13:22:00,
2013-09-30 07:42:00,54.0,39.0,29.36,West,268,14.0,30.0,56,0.00,,,0.01,,2013-09-30 13:42:00,
2013-09-30 07:52:00,53.0,41.0,29.36,SW,229,14.0,21.0,63,0.01,,,0.02,,2013-09-30 13:52:00,
2013-09-30 08:11:00,54.0,39.0,29.36,West,259,14.0,29.0,57,0.01,,,0.02,,2013-09-30 14:11:00,
2013-09-30 08:22:00,55.0,40.0,29.36,SW,235,8.0,25.0,57,0.02,,,0.03,,2013-09-30 14:22:00,
2013-09-30 08:42:00,55.0,41.0,29.36,WSW,241,13.0,22.0,60,0.03,,,0.04,,2013-09-30 14:42:00,
2013-09-30 08:52:00,55.0,41.0,29.36,WSW,241,11.0,22.0,59,0.02,,,0.04,,2013-09-30 14:52:00,
2013-09-30 09:11:00,54.0,42.0,29.36,WSW,244,8.0,20.0,64,0.02,,,0.04,,2013-09-30 15:11:00,
2013-09-30 09:22:00,55.0,41.0,29.36,SSW,209,6.0,13.0,60,0.01,,,0.04,,2013-09-30 15:22:00,
2013-09-30 09:45:00,55.0,43.0,29.36,WSW,248,8.0,15.0,63,0.00,,,0.04,,2013-09-30 15:45:00,
2013-09-30 09:54:00,56.0,41.0,29.36,SSW,205,9.0,17.0,57,0.00,,,0.04,,2013-09-30 15:54:00,
2013-09-30 10:14:00,57.0,41.0,29.34,WSW,257,6.0,16.0,55,0.00,,,0.04,,2013-09-30 16:14:00,
2013-09-30 10:24:00,58.0,45.0,29.33,WSW,256,7.0,11.0,61,0.00,,,0.04,,2013-09-30 16:24:00,
2013-09-30 10:44:00,58.0,42.0,29.33,SSW,192,8.0,14.0,56,0.00,,,0.04,,2013-09-30 16:44:00,
2013-09-30 10:53:00,60.0,42.0,29.33,SSW,204,6.0,11.0,52,0.00,,,0.04,,2013-09-30 16:53:00,
2013-09-30 11:13:00,61.0,43.0,29.33,West,276,4.0,12.0,52,0.00,,,0.04,,2013-09-30 17:13:00,
2013-09-30 11:22:00,61.0,42.0,29.32,SSW,196,5.0,14.0,50,0.00,,,0.04,,2013-09-30 17:22:00,
2013-09-30 11:43:00,61.0,39.0,29.33,WSW,238,5.0,22.0,44,0.00,,,0.04,,2013-09-30 17:43:00,
2013-09-30 11:53:00,61.0,39.0,29.33,SSW,209,12.0,22.0,44,0.00,,,0.04,,2013-09-30 17:53:00,
2013-09-30 12:12:00,62.0,39.0,29.34,South,187,8.0,20.0,43,0.00,,,0.04,,2013-09-30 18:12:00,
2013-09-30 12:22:00,62.0,39.0,29.35,South,175,10.0,21.0,42,0.00,,,0.04,,2013-09-30 18:22:00,
2013-09-30 12:53:00,61.0,40.0,29.35,NW,312,15.0,26.0,45,0.00,,,0.03,,2013-09-30 18:53:00,
2013-09-30 13:12:00,63.0,41.0,29.34,SSE,168,7.0,21.0,44,0.00,,,0.03,,2013-09-30 19:12:00,
2013-09-30 13:22:00,64.0,38.0,29.34,South,186,10.0,28.0,38,0.00,,,0.03,,2013-09-30 19:22:00,
2013-09-30 13:42:00,64.0,38.0,29.33,SW,219,9.0,22.0,38,0.00,,,0.03,,2013-09-30 19:42:00,
2013-09-30 13:53:00,64.0,37.0,29.33,SW,233,6.0,24.0,37,0.00,,,0.03,,2013-09-30 19:53:00,
2013-09-30 14:12:00,64.0,36.0,29.33,South,188,11.0,31.0,35,0.00,,,0.03,,2013-09-30 20:12:00,
2013-09-30 14:23:00,64.0,37.0,29.34,SSE,159,9.0,20.0,37,0.00,,,0.03,,2013-09-30 20:23:00,
2013-09-30 14:53:00,62.0,38.0,29.34,NE,52,14.0,19.0,41,0.00,,,0.03,,2013-09-30 20:53:00,
2013-09-30 15:11:00,58.0,37.0,29.33,East,84,16.0,26.0,46,0.00,,,0.03,,2013-09-30 21:11:00,
2013-09-30 15:22:00,56.0,38.0,29.34,NE,55,15.0,23.0,51,0.00,,,0.03,,2013-09-30 21:22:00,
2013-09-30 15:43:00,54.0,39.0,29.35,NE,56,17.0,22.0,56,0.00,,,0.03,,2013-09-30 21:43:00,
2013-09-30 15:54:00,53.0,40.0,29.38,NNE,31,15.0,21.0,61,0.00,,,0.03,,2013-09-30 21:54:00,
2013-09-30 16:13:00,52.0,41.0,29.42,NNE,28,5.0,13.0,66,0.00,,,0.03,,2013-09-30 22:13:00,
2013-09-30 16:23:00,52.0,44.0,29.45,SSW,203,5.0,8.0,74,0.01,,,0.04,,2013-09-30 22:23:00,
2013-09-30 16:43:00,52.0,40.0,29.47,WSW,248,11.0,16.0,63,0.01,,,0.04,,2013-09-30 22:43:00,
2013-09-30 16:54:00,50.0,42.0,29.47,South,179,10.0,12.0,73,0.04,,,0.07,,2013-09-30 22:54:00,
2013-09-30 17:12:00,50.0,43.0,29.47,South,186,7.0,10.0,77,0.04,,,0.07,,2013-09-30 23:12:00,
2013-09-30 17:23:00,50.0,42.0,29.48,SSW,193,9.0,12.0,73,0.03,,,0.07,,2013-09-30 23:23:00,
2013-09-30 17:42:00,51.0,38.0,29.49,SW,232,6.0,12.0,62,0.03,,,0.07,,2013-09-30 23:42:00,
2013-09-30 17:54:00,51.0,40.0,29.48,SW,222,7.0,11.0,65,0.00,,,0.07,,2013-09-30 23:54:00,
2013-09-30 18:12:00,51.0,39.0,29.49,SW,223,4.0,12.0,64,0.00,,,0.07,,2013-10-01 00:12:00,
2013-09-30 18:22:00,51.0,40.0,29.49,South,182,1.0,6.0,67,0.00,,,0.07,,2013-10-01 00:22:00,
2013-09-30 18:43:00,49.0,41.0,29.54,South,179,11.0,15.0,74,0.02,,,0.09,,2013-10-01 00:43:00,
2013-09-30 18:52:00,48.0,40.0,29.54,SSW,192,9.0,12.0,74,0.03,,,0.10,,2013-10-01 00:52:00,
2013-09-30 19:12:00,47.0,40.0,29.55,South,180,12.0,15.0,77,0.04,,,0.11,,2013-10-01 01:12:00,
2013-09-30 19:21:00,47.0,41.0,29.53,SSW,201,9.0,16.0,81,0.04,,,0.11,,2013-10-01 01:21:00,
2013-09-30 19:42:00,47.0,38.0,29.53,South,186,7.0,20.0,72,0.02,,,0.11,,2013-10-01 01:42:00,
2013-09-30 19:52:00,48.0,39.0,29.54,SSW,204,13.0,16.0,70,0.01,,,0.11,,2013-10-01 01:52:00,
2013-09-30 20:12:00,48.0,39.0,29.55,WSW,245,2.0,9.0,71,0.00,,,0.11,,2013-10-01 02:12:00,
2013-09-30 20:22:00,48.0,38.0,29.57,NNE,17,7.0,10.0,68,0.00,,,0.11,,2013-10-01 02:22:00,
2013-09-30 20:42:00,48.0,38.0,29.56,SW,235,7.0,11.0,68,0.00,,,0.11,,2013-10-01 02:42:00,
2013-09-30 20:52:00,50.0,38.0,29.58,WSW,244,18.0,26.0,63,0.00,,,0.11,,2013-10-01 02:52:00,
2013-09-30 21:12:00,50.0,36.0,29.57,NW,304,9.0,21.0,58,0.00,,,0.11,,2013-10-01 03:12:00,
2013-09-30 21:22:00,50.0,36.0,29.57,West,263,11.0,39.0,59,0.00,,,0.11,,2013-10-01 03:22:00,
2013-09-30 21:44:00,50.0,36.0,29.56,SSE,155,16.0,34.0,59,0.00,,,0.11,,2013-10-01 03:44:00,
2013-09-30 21:55:00,51.0,35.0,29.59,SE,138,16.0,27.0,54,0.00,,,0.11,,2013-10-01 03:55:00,
2013-09-30 22:14:00,50.0,35.0,29.59,NE,51,15.0,37.0,56,0.01,,,0.12,,2013-10-01 04:14:00,
2013-09-30 22:24:00,50.0,35.0,29.59,NE,51,15.0,37.0,56,0.01,,,0.12,,2013-10-01 04:24:00,